[[{"header":{"parameterUnit":"m.s-1","parameterCategory":1,"la1":30.2991,"la2":30.254,"lo1":-89.0895,"lo2":-89.0444,"dy":0.0017,"dx":0.0017,"nx":28,"ny":28,"refTime":"2024-08-05T09:00:00:Z","depth":0,"parameterNumber":2,"parameterNumberName":"U-component_of_WINDS"},"data":[0,0,0,0,0,0,0,0,0,0,0,0,0,0,0,0,0,0,0,0,0,0,0,0,0,0,0,0,0,0,0,0,0,0,0,0,0,0,0,0,0,0,0,0,0,0,0,0,0,0,0,0,0,0,0,0,0,0,1.8473,1.8474,0,1.8572,1.8573,1.8575,1.8578,1.8577,1.8576,1.8575,1.8684,1.8688,1.8692,0,0,0,0,0,0,0,0,0,0,0,0,0,1.8295,1.8299,1.8473,1.8474,1.8475,1.8572,1.8574,1.8575,1.8579,1.8577,1.8576,1.8574,1.8682,1.8687,1.8692,0,0,0,0,0,0,0,0,0,0,0,0,0,1.8382,1.83,1.8473,1.8489,1.8491,1.8572,1.8574,1.8575,1.8579,1.8577,1.8575,1.8574,1.8681,1.8687,1.8693,1.8766,0,0,1.8711,1.8714,0,0,0,0,0,0,0,0,1.8377,1.8388,1.8485,1.8488,1.8491,1.8561,1.8551,1.864,1.8579,1.8546,1.8575,1.8573,1.8645,1.8654,1.8677,1.8771,1.8776,1.8712,1.8715,1.8718,1.872,0,0,0,0,0,0,0,1.8371,1.8384,1.8513,1.8487,1.849,1.8494,1.8504,1.8568,1.8605,1.8549,1.8549,1.856,1.8646,1.8671,1.8679,1.8778,1.8712,1.8717,1.8721,1.8723,1.8941,1.8943,0,0,0,0,0,0,1.836,1.8379,1.8509,1.8515,1.8428,1.8499,1.851,1.854,1.8604,1.8612,1.8562,1.856,1.8661,1.8672,1.8683,1.8775,1.8718,1.8724,1.8727,1.8939,1.8942,1.8944,0,0,0,0,0,0,1.8357,1.8372,1.8505,1.8447,1.8465,1.8503,1.8538,1.8543,1.8568,1.8614,1.8621,1.858,1.866,1.8675,1.8746,1.8779,1.8726,1.8732,1.8937,1.894,1.8943,1.8958,0,0,0,0,0,0,1.8351,1.8371,1.8397,1.8448,1.8468,1.8564,1.854,1.8547,1.8577,1.8576,1.8632,1.864,1.866,1.8737,1.8752,1.8786,1.8737,1.8934,1.8938,1.8942,1.8955,1.8962,1.8968,0,0,0,0,0,1.8345,1.8398,1.8398,1.8414,1.8501,1.8565,1.8577,1.8597,1.858,1.8608,1.8638,1.8638,1.8773,1.8744,1.8761,1.8798,1.8932,1.8937,1.8942,1.8952,1.8961,1.8967,0,0,0,0,0,0,1.8351,1.8405,1.8405,1.8476,1.8516,1.8566,1.8602,1.8604,1.8652,1.8649,1.8674,1.8687,1.8758,1.8785,1.8752,1.8874,1.8851,1.8859,1.8853,1.8861,1.8867,1.886,1.8742,0,0,0,0,0,1.8361,1.8406,1.8452,1.851,1.853,1.8562,1.8591,1.8603,1.8647,1.8664,1.8699,1.8744,1.8796,1.883,1.8881,1.8959,1.8973,1.8993,1.9,1.9004,1.9012,1.9058,1.9068,1.896,1.896,1.896,0,0,1.8381,1.8416,1.8443,1.8512,1.8544,1.8594,1.8577,1.8629,1.8667,1.8673,1.8742,1.877,1.8821,1.8897,1.8932,1.8922,1.9045,1.9011,1.9014,1.9019,1.9064,1.9074,1.9083,1.8964,1.8963,1.8962,0,0,1.8443,1.8473,1.8526,1.8559,1.8607,1.8629,1.8642,1.8692,1.871,1.8779,1.8786,1.8833,1.8922,1.8959,1.8989,1.9069,1.9072,1.9085,1.9117,1.9162,1.9171,1.9178,1.9208,1.9219,1.9092,1.9092,1.9092,0,1.8463,1.8535,1.8553,1.8606,1.8637,1.8643,1.8699,1.8731,1.8795,1.8817,1.8805,1.8918,1.8953,1.9038,1.9058,1.9082,1.91,1.9078,1.9167,1.9175,1.9183,1.9212,1.9223,1.9093,1.9093,1.9093,1.9093,0,1.8558,1.8608,1.8645,1.8705,1.8741,1.8795,1.8824,1.8858,1.8868,1.8892,1.8965,1.9007,1.9067,1.9089,1.9099,1.9177,1.9169,1.9162,1.9139,1.9194,1.9222,1.9233,1.9095,1.9095,1.9094,1.9094,0,0,1.8625,1.8695,1.8709,1.8737,1.8793,1.8834,1.889,1.8947,1.8977,1.9022,1.9071,1.9147,1.9141,1.9176,1.9191,1.923,1.9293,1.9218,1.922,1.9232,1.9384,1.9389,1.9402,1.9295,1.9297,1.9299,1.938,0,1.8695,1.8791,1.881,1.8895,1.8944,1.8952,1.9001,1.9042,1.9067,1.9114,1.9143,1.9197,1.9184,1.9205,1.9244,1.9277,1.9324,1.9271,1.9344,1.9346,1.9331,1.9416,1.9422,1.9496,1.9391,1.9393,1.9394,0,1.8787,1.8833,1.8922,1.8973,1.8995,1.9038,1.9093,1.9137,1.9186,1.9202,1.9241,1.9252,1.9314,1.9289,1.9376,1.934,1.9371,1.9392,1.9395,1.9403,1.9373,1.9427,1.952,1.9531,1.9411,1.941,1.9408,0,1.8829,1.8914,1.8978,1.9002,1.9063,1.9094,1.9121,1.9168,1.9202,1.9251,1.9274,1.9331,1.9362,1.9408,1.9435,1.9413,1.9521,1.9497,1.9538,1.9538,1.956,1.9559,1.966,1.9579,1.9579,1.9579,1.9579,0,1.8905,1.896,1.8998,1.9038,1.9101,1.9124,1.9187,1.9215,1.9256,1.9304,1.9315,1.936,1.9394,1.9445,1.9467,1.9537,1.9551,1.9568,1.9573,1.9567,1.9565,1.9588,1.9584,1.9582,1.9581,1.9581,1.958,0,1.8962,1.899,1.9061,1.9113,1.9128,1.9172,1.9218,1.9259,1.9285,1.9345,1.9361,1.9402,1.9463,1.9495,1.9571,1.9586,1.9665,1.9668,1.9648,1.9651,1.969,1.9686,1.981,1.9828,1.9735,1.9736,1.9737,0,1.9008,1.905,1.9107,1.9139,1.9167,1.9218,1.9252,1.9279,1.9315,1.9374,1.9409,1.947,1.952,1.9617,1.9655,1.9715,1.9719,1.9758,1.9728,1.9721,1.9721,1.9718,1.9724,1.9764,1.9765,1.9765,1.9766,0,1.9088,1.91,1.9148,1.9202,1.9243,1.9287,1.9331,1.9358,1.9391,1.9432,1.9493,1.9532,1.961,1.9671,1.9734,1.9765,1.9773,1.9775,1.9788,1.9782,1.977,1.9778,1.9664,1.9772,1.9772,1.9771,1.9771,1.9771,1.9142,1.9181,1.9227,1.9281,1.9317,1.9358,1.94,1.943,1.9481,1.9545,1.9558,1.9624,1.9675,1.9759,1.9792,1.9846,1.9838,1.9856,1.9861,1.9865,1.9867,1.9761,1.9857,1.9857,1.9857,1.9857,1.9857,0,1.9224,1.9254,1.9304,1.9364,1.9408,1.9409,1.9459,1.9496,1.9552,1.9598,1.9647,1.9719,1.9779,1.9822,1.9885,1.9919,1.9924,1.9935,1.9933,1.9941,1.987,1.9853,1.993,1.993,1.993,1.993,1.993,1.993,1.9271,1.9337,1.9355,1.944,1.9471,1.9534,1.9562,1.9602,1.9638,1.9717,1.9766,1.9794,1.984,1.9906,1.9962,1.9974,1.9997,2.0007,2.0019,1.9953,1.9945,1.9938,1.9922,2.0012,2.0012,2.0085,2.0086,2.0086]},{"header":{"parameterUnit":"m.s-1","parameterCategory":1,"la1":30.2991,"la2":30.254,"lo1":-89.0895,"lo2":-89.0444,"dy":0.0017,"dx":0.0017,"nx":28,"ny":28,"refTime":"2024-08-05T09:00:00:Z","depth":0,"parameterNumber":3,"parameterNumberName":"V-component_of_WINDS"},"data":[0,0,0,0,0,0,0,0,0,0,0,0,0,0,0,0,0,0,0,0,0,0,0,0,0,0,0,0,0,0,0,0,0,0,0,0,0,0,0,0,0,0,0,0,0,0,0,0,0,0,0,0,0,0,0,0,0,0,1.8813,1.8815,0,1.9057,1.906,1.9063,1.9018,1.9014,1.901,1.9006,1.9257,1.9268,1.9278,0,0,0,0,0,0,0,0,0,0,0,0,0,1.8304,1.8314,1.8812,1.8816,1.8819,1.9057,1.906,1.9064,1.9019,1.9014,1.9009,1.9004,1.9254,1.9266,1.9279,0,0,0,0,0,0,0,0,0,0,0,0,0,1.8535,1.8317,1.8812,1.8825,1.8829,1.9056,1.906,1.9064,1.902,1.9014,1.9007,1.9001,1.9249,1.9265,1.9281,1.9511,0,0,1.933,1.9337,0,0,0,0,0,0,0,0,1.8522,1.8553,1.882,1.8825,1.8829,1.9001,1.8973,1.9214,1.9022,1.8948,1.9006,1.8998,1.9177,1.9199,1.9259,1.9523,1.9533,1.9332,1.9341,1.9348,1.9353,0,0,0,0,0,0,0,1.8506,1.8542,1.8909,1.8824,1.883,1.8818,1.8843,1.9019,1.9096,1.8954,1.8951,1.898,1.9178,1.9244,1.9265,1.9537,1.9331,1.9346,1.9356,1.9362,1.9995,2.0002,0,0,0,0,0,0,1.8486,1.8529,1.8902,1.8917,1.8656,1.8832,1.8861,1.8952,1.9094,1.9109,1.8986,1.8977,1.9219,1.9246,1.9273,1.9548,1.9348,1.9363,1.9373,1.9988,1.9997,2.0005,0,0,0,0,0,0,1.8475,1.8519,1.8892,1.8722,1.8769,1.8848,1.8951,1.896,1.9026,1.9118,1.9132,1.9038,1.9215,1.9251,1.9451,1.9556,1.9371,1.9385,1.998,1.9991,2.0001,2.0102,0,0,0,0,0,0,1.8461,1.8516,1.8605,1.8725,1.8778,1.9067,1.8958,1.897,1.9053,1.9045,1.9171,1.9186,1.9213,1.9427,1.9467,1.9575,1.9398,1.9971,1.9985,1.9997,2.0089,2.0114,2.0136,0,0,0,0,0,1.8443,1.8625,1.861,1.8655,1.8892,1.9073,1.9103,1.913,1.9062,1.9152,1.921,1.9182,1.9538,1.9448,1.9492,1.9607,1.9964,1.9981,1.9996,2.0079,2.011,2.0136,0,0,0,0,0,0,1.8518,1.8641,1.8626,1.8853,1.8952,1.9065,1.9179,1.9163,1.9284,1.9271,1.93,1.9328,1.9531,1.9589,1.9486,1.9834,1.9741,1.9767,1.9789,1.9819,1.9842,1.9823,1.9411,0,0,0,0,0,1.856,1.8697,1.8798,1.8988,1.9039,1.91,1.918,1.9192,1.9296,1.9339,1.9412,1.9514,1.9648,1.9737,1.9866,2.0097,2.0122,2.0197,2.0221,2.0239,2.0261,2.0383,2.0416,2.0058,2.0057,2.0057,0,0,1.8651,1.8735,1.882,1.9005,1.9084,1.9224,1.9136,1.929,1.9393,1.9362,1.9554,1.9611,1.9727,1.9942,2.0041,1.9997,2.0365,2.026,2.0274,2.0286,2.0403,2.0437,2.0467,2.0068,2.0066,2.0065,0,0,1.8886,1.8965,1.913,1.9209,1.9328,1.9367,1.9406,1.9521,1.9557,1.975,1.9728,1.9851,2.0084,2.0165,2.0237,2.0497,2.0474,2.0538,2.0661,2.0779,2.0807,2.0832,2.0922,2.0954,2.056,2.056,2.056,0,1.8983,1.9194,1.9217,1.9371,1.9451,1.9428,1.9593,1.9669,1.9825,1.988,1.9829,2.0116,2.0193,2.0424,2.0487,2.0547,2.059,2.0525,2.0801,2.0827,2.0851,2.0936,2.097,2.0567,2.0566,2.0566,2.0565,0,1.9305,1.9451,1.957,1.9719,1.9812,1.9972,2.0017,2.0109,2.0111,2.0154,2.0349,2.0439,2.0584,2.0639,2.0645,2.0871,2.0839,2.0795,2.0702,2.0891,2.0972,2.1005,2.0577,2.0574,2.0572,2.0571,0,0,1.9598,1.9754,1.9797,1.9862,1.9989,2.0102,2.0258,2.0398,2.0474,2.0581,2.0711,2.0905,2.0863,2.0944,2.0958,2.1061,2.1256,2.1003,2.1006,2.1045,2.1507,2.1538,2.1576,2.1242,2.1248,2.1253,2.1496,0,1.9844,2.012,2.0143,2.039,2.0523,2.05,2.0635,2.0726,2.077,2.0888,2.0935,2.1071,2.1007,2.1055,2.1157,2.1211,2.1349,2.1194,2.1361,2.1367,2.1332,2.1619,2.1655,2.188,2.1528,2.1534,2.1537,0,2.0168,2.0282,2.0542,2.0646,2.0702,2.0824,2.0951,2.1065,2.1166,2.119,2.1278,2.1276,2.1434,2.1334,2.155,2.1444,2.1513,2.1549,2.1559,2.1575,2.1463,2.1641,2.1953,2.1986,2.1588,2.1584,2.158,0,2.0352,2.057,2.0753,2.081,2.0936,2.1021,2.1078,2.1173,2.1254,2.1365,2.1417,2.1545,2.1615,2.1713,2.1744,2.167,2.1958,2.1862,2.198,2.1979,2.2042,2.2038,2.2367,2.2089,2.2088,2.2088,2.2087,0,2.0623,2.0783,2.0836,2.0949,2.1125,2.1149,2.1323,2.1374,2.1458,2.1578,2.1566,2.1678,2.1713,2.1831,2.1856,2.2028,2.2061,2.2083,2.2087,2.2083,2.208,2.2129,2.2113,2.2097,2.2095,2.2093,2.2091,0,2.0859,2.0902,2.1099,2.1201,2.123,2.1355,2.1441,2.1548,2.1587,2.1739,2.1776,2.1838,2.1976,2.2016,2.2182,2.2198,2.24,2.2391,2.2366,2.2365,2.248,2.2468,2.2852,2.2902,2.2592,2.2594,2.2597,0,2.1029,2.1151,2.1264,2.1343,2.1403,2.1531,2.1612,2.1638,2.1724,2.1845,2.1936,2.2072,2.2182,2.2402,2.2461,2.2587,2.258,2.2705,2.2599,2.2589,2.2578,2.257,2.2581,2.2725,2.2729,2.2731,2.2733,0,2.1325,2.1339,2.1457,2.1581,2.1678,2.1778,2.1873,2.1939,2.1978,2.2073,2.2213,2.2298,2.2465,2.2599,2.2725,2.2781,2.2763,2.2766,2.2799,2.2797,2.2775,2.2785,2.2419,2.2757,2.2755,2.2753,2.2752,2.2751,2.1532,2.1637,2.1732,2.1862,2.1936,2.2024,2.2128,2.2179,2.2296,2.2434,2.2441,2.2592,2.2685,2.2852,2.2914,2.3031,2.2994,2.3043,2.3055,2.3067,2.3075,2.2757,2.3054,2.3054,2.3053,2.3053,2.3052,0,2.1825,2.1883,2.2003,2.2136,2.2237,2.221,2.2313,2.2399,2.2532,2.262,2.2727,2.2885,2.3013,2.308,2.3206,2.3286,2.3281,2.3319,2.3312,2.3325,2.3102,2.306,2.332,2.332,2.332,2.332,2.332,2.332,2.1989,2.2164,2.2189,2.2398,2.2456,2.2603,2.2663,2.2743,2.2813,2.299,2.3095,2.3138,2.3216,2.3347,2.3462,2.3478,2.3524,2.3566,2.3578,2.3369,2.3341,2.3315,2.3275,2.3577,2.3577,2.379,2.3792,2.3793]}]]